Time,TemperatureF,DewpointF,PressureIn,WindDirection,WindDirectionDegrees,WindSpeedMPH,WindSpeedGustMPH,Humidity,HourlyPrecipIn,Conditions,Clouds,dailyrainin,SoftwareType,DateUTC
2015-03-31 00:01:00,54.3,39.0,29.99,SSW,193,7.5,9.0,56,0.00,,BKN250,0.00,VWS V15.00,2015-03-31 05:01:00,
2015-03-31 00:06:00,54.4,38.6,29.99,South,186,4.5,9.0,55,0.00,,BKN250,0.00,VWS V15.00,2015-03-31 05:06:00,
2015-03-31 00:11:00,54.5,38.7,29.99,South,181,1.5,9.0,55,0.00,,BKN250,0.00,VWS V15.00,2015-03-31 05:11:00,
2015-03-31 00:16:00,54.5,38.7,29.99,SSW,208,3.0,9.0,55,0.00,,BKN250,0.00,VWS V15.00,2015-03-31 05:16:00,
2015-03-31 00:21:00,54.6,38.8,29.98,SSW,200,3.0,9.0,55,0.00,,BKN250,0.00,VWS V15.00,2015-03-31 05:21:00,
2015-03-31 00:26:00,54.5,38.7,29.98,SSW,194,3.0,9.0,55,0.00,,BKN250,0.00,VWS V15.00,2015-03-31 05:26:00,
2015-03-31 00:31:00,54.5,38.7,29.98,SSW,194,4.5,7.5,55,0.00,,BKN250,0.00,VWS V15.00,2015-03-31 05:31:00,
2015-03-31 00:36:00,54.4,38.6,29.98,SSW,194,1.5,7.5,55,0.00,,BKN250,0.00,VWS V15.00,2015-03-31 05:36:00,
2015-03-31 00:41:00,54.3,39.0,29.98,SSW,194,3.0,7.5,56,0.00,,BKN250,0.00,VWS V15.00,2015-03-31 05:41:00,
2015-03-31 00:46:00,54.2,38.9,29.98,SSW,194,1.5,7.5,56,0.00,,BKN250,0.00,VWS V15.00,2015-03-31 05:46:00,
2015-03-31 00:51:00,54.1,38.8,29.98,SSW,194,1.5,7.5,56,0.00,,BKN250,0.00,VWS V15.00,2015-03-31 05:51:00,
2015-03-31 00:56:00,54.0,38.7,29.97,SSW,194,0.0,7.5,56,0.00,,BKN250,0.00,VWS V15.00,2015-03-31 05:56:00,
2015-03-31 01:01:00,53.8,38.5,29.97,SSW,194,0.0,0.0,56,0.00,,BKN250,0.00,VWS V15.00,2015-03-31 06:01:00,
2015-03-31 01:06:00,53.7,38.4,29.97,SSW,194,0.0,1.5,56,0.00,,BKN250,0.00,VWS V15.00,2015-03-31 06:06:00,
2015-03-31 01:11:00,53.6,38.8,29.97,SSW,194,0.0,1.5,57,0.00,,BKN250,0.00,VWS V15.00,2015-03-31 06:11:00,
2015-03-31 01:16:00,53.6,38.8,29.97,SSW,194,0.0,1.5,57,0.00,,BKN250,0.00,VWS V15.00,2015-03-31 06:16:00,
2015-03-31 01:21:00,53.5,38.7,29.97,SSW,194,0.0,1.5,57,0.00,,BKN250,0.00,VWS V15.00,2015-03-31 06:21:00,
2015-03-31 01:26:00,53.4,38.6,29.96,SSW,194,0.0,1.5,57,0.00,,BKN250,0.00,VWS V15.00,2015-03-31 06:26:00,
2015-03-31 01:31:00,53.2,38.4,29.96,SSW,194,0.0,0.0,57,0.00,,BKN250,0.00,VWS V15.00,2015-03-31 06:31:00,
2015-03-31 01:36:00,53.1,38.7,29.96,SSW,194,0.0,1.5,58,0.00,,BKN250,0.00,VWS V15.00,2015-03-31 06:36:00,
2015-03-31 01:41:00,52.9,38.5,29.96,SSW,194,0.0,1.5,58,0.00,,BKN250,0.00,VWS V15.00,2015-03-31 06:41:00,
2015-03-31 01:46:00,52.8,38.5,29.95,SSW,194,0.0,1.5,58,0.00,,BKN250,0.00,VWS V15.00,2015-03-31 06:46:00,
2015-03-31 01:51:00,52.6,38.7,29.95,SSW,194,0.0,1.5,59,0.00,,BKN250,0.00,VWS V15.00,2015-03-31 06:51:00,
2015-03-31 01:56:00,52.3,38.4,29.95,SSW,194,0.0,1.5,59,0.00,,BKN250,0.00,VWS V15.00,2015-03-31 06:56:00,
2015-03-31 02:01:00,52.1,38.7,29.95,SSW,194,0.0,0.0,60,0.00,,BKN250,0.00,VWS V15.00,2015-03-31 07:01:00,
2015-03-31 02:06:00,51.7,38.7,29.95,SSW,194,1.5,1.5,61,0.00,,BKN250,0.00,VWS V15.00,2015-03-31 07:06:00,
2015-03-31 02:11:00,51.5,38.5,29.94,SSW,194,1.5,3.0,61,0.00,,BKN250,0.00,VWS V15.00,2015-03-31 07:11:00,
2015-03-31 02:16:00,51.3,38.7,29.94,SSW,194,3.0,3.0,62,0.00,,BKN250,0.00,VWS V15.00,2015-03-31 07:16:00,
2015-03-31 02:21:00,51.1,38.5,29.94,SSE,162,0.0,9.0,62,0.00,,BKN250,0.00,VWS V15.00,2015-03-31 07:21:00,
2015-03-31 02:26:00,50.9,38.8,29.94,SSE,162,3.0,9.0,63,0.00,,BKN250,0.00,VWS V15.00,2015-03-31 07:26:00,
2015-03-31 02:31:00,50.8,38.7,29.94,SSE,162,1.5,6.0,63,0.00,,BKN250,0.00,VWS V15.00,2015-03-31 07:31:00,
2015-03-31 02:36:00,50.7,38.6,29.93,SSE,162,0.0,7.5,63,0.00,,BKN250,0.00,VWS V15.00,2015-03-31 07:36:00,
2015-03-31 02:41:00,50.6,38.9,29.93,SSE,162,6.0,7.5,64,0.00,,BKN250,0.00,VWS V15.00,2015-03-31 07:41:00,
2015-03-31 02:46:00,50.5,38.8,29.93,SSE,162,3.0,7.5,64,0.00,,BKN250,0.00,VWS V15.00,2015-03-31 07:46:00,
2015-03-31 02:51:00,50.5,38.8,29.92,SSE,162,6.0,7.5,64,0.00,,BKN250,0.00,VWS V15.00,2015-03-31 07:51:00,
2015-03-31 02:56:00,50.4,38.7,29.92,SSE,162,3.0,7.5,64,0.00,,BKN250,0.00,VWS V15.00,2015-03-31 07:56:00,
2015-03-31 03:01:00,50.4,38.7,29.92,SSE,162,0.0,3.0,64,0.00,,BKN250,0.00,VWS V15.00,2015-03-31 08:01:00,
2015-03-31 03:05:00,50.4,38.7,29.92,SSE,162,0.0,3.0,64,0.00,,BKN250,0.00,VWS V15.00,2015-03-31 08:05:00,
2015-03-31 03:10:00,50.3,38.6,29.92,SSE,162,0.0,3.0,64,0.00,,BKN250,0.00,VWS V15.00,2015-03-31 08:10:00,
2015-03-31 03:15:00,50.2,38.9,29.91,SSE,162,1.5,3.0,65,0.00,,BKN250,0.00,VWS V15.00,2015-03-31 08:15:00,
2015-03-31 03:20:00,50.0,38.7,29.91,SSE,162,0.0,6.0,65,0.00,,BKN250,0.00,VWS V15.00,2015-03-31 08:20:00,
2015-03-31 03:25:00,50.0,38.7,29.91,SSE,162,1.5,6.0,65,0.00,,BKN250,0.00,VWS V15.00,2015-03-31 08:25:00,
2015-03-31 03:30:00,49.9,38.6,29.91,SSE,162,1.5,3.0,65,0.00,,BKN250,0.00,VWS V15.00,2015-03-31 08:30:00,
2015-03-31 03:35:00,49.9,38.6,29.91,SSE,162,0.0,6.0,65,0.00,,BKN250,0.00,VWS V15.00,2015-03-31 08:35:00,
2015-03-31 03:40:00,49.9,38.6,29.90,SSE,162,1.5,6.0,65,0.00,,BKN250,0.00,VWS V15.00,2015-03-31 08:40:00,
2015-03-31 03:45:00,49.9,38.6,29.90,SSE,162,1.5,6.0,65,0.00,,BKN250,0.00,VWS V15.00,2015-03-31 08:45:00,
2015-03-31 03:50:00,49.9,39.0,29.90,SSE,162,0.0,6.0,66,0.00,,BKN250,0.00,VWS V15.00,2015-03-31 08:50:00,
2015-03-31 03:55:00,49.8,38.9,29.90,SSE,162,1.5,6.0,66,0.00,,BKN250,0.00,VWS V15.00,2015-03-31 08:55:00,
2015-03-31 04:00:00,49.8,38.9,29.90,SSE,162,0.0,1.5,66,0.00,,BKN250,0.00,VWS V15.00,2015-03-31 09:00:00,
2015-03-31 04:05:00,49.7,38.8,29.90,SSE,162,3.0,7.5,66,0.00,,BKN250,0.00,VWS V15.00,2015-03-31 09:05:00,
2015-03-31 04:10:00,49.7,38.8,29.90,SSE,162,0.0,7.5,66,0.00,,BKN250,0.00,VWS V15.00,2015-03-31 09:10:00,
2015-03-31 04:15:00,49.9,39.0,29.90,SSE,162,0.0,7.5,66,0.00,,BKN250,0.00,VWS V15.00,2015-03-31 09:15:00,
2015-03-31 04:20:00,49.8,38.9,29.90,SSE,162,0.0,7.5,66,0.00,,BKN250,0.00,VWS V15.00,2015-03-31 09:20:00,
2015-03-31 04:25:00,49.7,38.8,29.90,SSE,162,0.0,7.5,66,0.00,,BKN250,0.00,VWS V15.00,2015-03-31 09:25:00,
2015-03-31 04:30:00,49.6,39.1,29.90,SSE,162,0.0,0.0,67,0.00,,BKN250,0.00,VWS V15.00,2015-03-31 09:30:00,
2015-03-31 04:35:00,49.6,39.1,29.90,SSE,162,0.0,0.0,67,0.00,,BKN250,0.00,VWS V15.00,2015-03-31 09:35:00,
2015-03-31 04:40:00,49.5,39.4,29.90,SSE,162,0.0,0.0,68,0.00,,BKN250,0.00,VWS V15.00,2015-03-31 09:40:00,
2015-03-31 04:45:00,49.4,39.3,29.90,SSE,162,0.0,0.0,68,0.00,,BKN250,0.00,VWS V15.00,2015-03-31 09:45:00,
2015-03-31 04:50:00,49.3,39.2,29.90,SSE,162,0.0,0.0,68,0.00,,BKN250,0.00,VWS V15.00,2015-03-31 09:50:00,
2015-03-31 04:55:00,49.2,39.1,29.89,SSE,162,0.0,0.0,68,0.00,,BKN250,0.00,VWS V15.00,2015-03-31 09:55:00,
2015-03-31 05:00:00,49.0,39.3,29.89,SSE,162,0.0,0.0,69,0.00,,BKN250,0.00,VWS V15.00,2015-03-31 10:00:00,
2015-03-31 05:05:00,49.0,39.3,29.90,SSE,162,0.0,0.0,69,0.00,,BKN250,0.00,VWS V15.00,2015-03-31 10:05:00,
2015-03-31 05:10:00,49.0,39.7,29.89,SSE,162,0.0,0.0,70,0.00,,BKN250,0.00,VWS V15.00,2015-03-31 10:10:00,
2015-03-31 05:15:00,49.0,39.7,29.89,SSE,162,0.0,0.0,70,0.00,,BKN250,0.00,VWS V15.00,2015-03-31 10:15:00,
2015-03-31 05:20:00,49.1,39.8,29.89,SSE,162,0.0,1.5,70,0.00,,BKN250,0.00,VWS V15.00,2015-03-31 10:20:00,
2015-03-31 05:25:00,49.1,39.8,29.89,SSE,162,0.0,1.5,70,0.00,,BKN250,0.00,VWS V15.00,2015-03-31 10:25:00,
2015-03-31 05:30:00,49.2,39.8,29.89,SSE,162,0.0,0.0,70,0.00,,BKN250,0.00,VWS V15.00,2015-03-31 10:30:00,
2015-03-31 05:35:00,49.3,40.3,29.89,SSE,162,0.0,0.0,71,0.00,,BKN250,0.00,VWS V15.00,2015-03-31 10:35:00,
2015-03-31 05:40:00,49.4,40.0,29.89,SSE,162,0.0,0.0,70,0.00,,BKN250,0.00,VWS V15.00,2015-03-31 10:40:00,
2015-03-31 05:45:00,49.6,40.6,29.89,SSE,162,0.0,6.0,71,0.00,,BKN250,0.00,VWS V15.00,2015-03-31 10:45:00,
2015-03-31 05:50:00,49.7,40.3,29.89,SSE,162,0.0,6.0,70,0.00,,BKN250,0.00,VWS V15.00,2015-03-31 10:50:00,
2015-03-31 05:55:00,49.8,40.8,29.89,SSE,162,0.0,6.0,71,0.00,,BKN250,0.00,VWS V15.00,2015-03-31 10:55:00,
2015-03-31 06:00:00,49.9,40.9,29.89,SSE,162,0.0,0.0,71,0.00,,BKN250,0.00,VWS V15.00,2015-03-31 11:00:00,
2015-03-31 06:05:00,50.0,41.0,29.89,SSE,162,0.0,1.5,71,0.00,,BKN250,0.00,VWS V15.00,2015-03-31 11:05:00,
2015-03-31 06:10:00,49.9,40.9,29.89,SSE,162,0.0,1.5,71,0.00,,BKN250,0.00,VWS V15.00,2015-03-31 11:10:00,
2015-03-31 06:15:00,50.0,41.0,29.89,SSE,162,0.0,1.5,71,0.00,,BKN250,0.00,VWS V15.00,2015-03-31 11:15:00,
2015-03-31 06:20:00,50.1,41.1,29.89,SSE,162,0.0,1.5,71,0.00,,BKN250,0.00,VWS V15.00,2015-03-31 11:20:00,
2015-03-31 06:25:00,50.1,41.4,29.89,SSE,162,0.0,3.0,72,0.00,,BKN250,0.00,VWS V15.00,2015-03-31 11:25:00,
2015-03-31 06:30:00,50.3,41.6,29.89,SSE,162,0.0,1.5,72,0.00,,BKN250,0.00,VWS V15.00,2015-03-31 11:30:00,
2015-03-31 06:35:00,50.3,41.6,29.89,SSE,162,0.0,1.5,72,0.00,,BKN250,0.00,VWS V15.00,2015-03-31 11:35:00,
2015-03-31 06:40:00,50.4,41.7,29.89,SSE,162,0.0,1.5,72,0.00,,BKN250,0.00,VWS V15.00,2015-03-31 11:40:00,
2015-03-31 06:45:00,50.4,41.7,29.89,SSE,162,0.0,3.0,72,0.00,,BKN250,0.00,VWS V15.00,2015-03-31 11:45:00,
2015-03-31 06:50:00,50.4,41.7,29.89,SSE,162,0.0,3.0,72,0.00,,BKN250,0.00,VWS V15.00,2015-03-31 11:50:00,
2015-03-31 06:55:00,50.5,42.2,29.89,SSE,162,0.0,3.0,73,0.00,,BKN250,0.00,VWS V15.00,2015-03-31 11:55:00,
2015-03-31 07:00:00,50.6,42.3,29.89,SSE,162,0.0,6.0,73,0.00,,BKN250,0.00,VWS V15.00,2015-03-31 12:00:00,
2015-03-31 07:05:00,50.7,42.4,29.89,SSE,162,0.0,6.0,73,0.00,,BKN250,0.00,VWS V15.00,2015-03-31 12:05:00,
2015-03-31 07:10:00,50.8,42.5,29.89,SSE,162,0.0,6.0,73,0.00,,BKN250,0.00,VWS V15.00,2015-03-31 12:10:00,
2015-03-31 07:15:00,50.8,42.5,29.89,SSE,162,0.0,6.0,73,0.00,,BKN250,0.00,VWS V15.00,2015-03-31 12:15:00,
2015-03-31 07:20:00,50.8,42.5,29.89,SSE,162,0.0,6.0,73,0.00,,BKN250,0.00,VWS V15.00,2015-03-31 12:20:00,
2015-03-31 07:25:00,50.9,43.6,29.89,SSE,162,1.5,6.0,76,0.00,,BKN250,0.00,VWS V15.00,2015-03-31 12:25:00,
2015-03-31 07:30:00,51.0,43.0,29.89,SSE,162,1.5,1.5,74,0.00,,BKN250,0.00,VWS V15.00,2015-03-31 12:30:00,
2015-03-31 07:35:00,51.2,43.2,29.89,SSE,162,0.0,3.0,74,0.00,,BKN250,0.00,VWS V15.00,2015-03-31 12:35:00,
2015-03-31 07:40:00,51.4,43.8,29.90,SSE,162,0.0,7.5,75,0.00,,BKN250,0.00,VWS V15.00,2015-03-31 12:40:00,
2015-03-31 07:45:00,51.8,43.8,29.90,SSE,162,0.0,7.5,74,0.00,,BKN250,0.00,VWS V15.00,2015-03-31 12:45:00,
2015-03-31 07:50:00,52.1,44.1,29.90,SSE,162,6.0,7.5,74,0.00,,BKN250,0.00,VWS V15.00,2015-03-31 12:50:00,
2015-03-31 07:55:00,52.5,44.5,29.90,SSE,162,0.0,7.5,74,0.00,,BKN250,0.00,VWS V15.00,2015-03-31 12:55:00,
2015-03-31 08:00:00,52.9,44.8,29.90,SSE,162,0.0,0.0,74,0.00,,BKN250,0.00,VWS V15.00,2015-03-31 13:00:00,
2015-03-31 08:05:00,53.3,45.2,29.90,SSE,162,1.5,1.5,74,0.00,,BKN250,0.00,VWS V15.00,2015-03-31 13:05:00,
2015-03-31 08:10:00,53.9,45.8,29.90,SSE,162,6.0,7.5,74,0.00,,BKN250,0.00,VWS V15.00,2015-03-31 13:10:00,
2015-03-31 08:15:00,54.6,45.8,29.90,SW,218,3.0,7.5,72,0.00,,BKN250,0.00,VWS V15.00,2015-03-31 13:15:00,
2015-03-31 08:20:00,55.4,46.2,29.90,SW,217,0.0,7.5,71,0.00,,BKN250,0.00,VWS V15.00,2015-03-31 13:20:00,
2015-03-31 08:25:00,55.8,46.2,29.90,SW,215,4.5,7.5,70,0.00,,BKN250,0.00,VWS V15.00,2015-03-31 13:25:00,
2015-03-31 08:30:00,56.4,46.8,29.90,WSW,250,0.0,1.5,70,0.00,,BKN250,0.00,VWS V15.00,2015-03-31 13:30:00,
2015-03-31 08:35:00,57.0,46.9,29.90,WSW,254,4.5,7.5,69,0.00,,BKN250,0.00,VWS V15.00,2015-03-31 13:35:00,
2015-03-31 08:40:00,57.7,46.4,29.91,West,279,0.0,7.5,66,0.00,,BKN250,0.00,VWS V15.00,2015-03-31 13:40:00,
2015-03-31 08:45:00,58.2,46.5,29.91,WNW,284,1.5,7.5,65,0.00,,BKN250,0.00,VWS V15.00,2015-03-31 13:45:00,
2015-03-31 08:50:00,58.7,46.6,29.91,WNW,292,0.0,9.0,64,0.00,,BKN250,0.00,VWS V15.00,2015-03-31 13:50:00,
2015-03-31 08:55:00,59.3,46.3,29.91,WNW,298,9.0,10.5,62,0.00,,BKN250,0.00,VWS V15.00,2015-03-31 13:55:00,
2015-03-31 09:00:00,59.7,46.7,29.91,WNW,303,6.0,6.0,62,0.00,,BKN250,0.00,VWS V15.00,2015-03-31 14:00:00,
2015-03-31 09:05:00,60.0,46.5,29.92,WNW,300,3.0,12.0,61,0.00,,BKN250,0.00,VWS V15.00,2015-03-31 14:05:00,
2015-03-31 09:10:00,60.2,46.3,29.91,WNW,300,6.0,13.5,60,0.00,,BKN250,0.00,VWS V15.00,2015-03-31 14:10:00,
2015-03-31 09:15:00,60.4,46.5,29.92,WNW,292,13.5,13.5,60,0.00,,BKN250,0.00,VWS V15.00,2015-03-31 14:15:00,
2015-03-31 09:20:00,60.8,46.4,29.92,NW,307,7.5,16.5,59,0.00,,BKN250,0.00,VWS V15.00,2015-03-31 14:20:00,
2015-03-31 09:25:00,61.2,46.8,29.92,WNW,296,9.0,16.5,59,0.00,,BKN250,0.00,VWS V15.00,2015-03-31 14:25:00,
2015-03-31 09:30:00,61.5,46.1,29.92,NW,315,15.0,15.0,57,0.00,,BKN250,0.00,VWS V15.00,2015-03-31 14:30:00,
2015-03-31 09:35:00,61.7,45.9,29.92,WNW,302,9.0,18.0,56,0.00,,BKN250,0.00,VWS V15.00,2015-03-31 14:35:00,
2015-03-31 09:40:00,61.9,45.6,29.92,WNW,294,12.0,19.5,55,0.00,,BKN250,0.00,VWS V15.00,2015-03-31 14:40:00,
2015-03-31 09:45:00,62.0,45.2,29.92,WNW,284,12.0,21.0,54,0.00,,BKN250,0.00,VWS V15.00,2015-03-31 14:45:00,
2015-03-31 09:50:00,61.9,45.1,29.92,WNW,302,7.5,21.0,54,0.00,,BKN250,0.00,VWS V15.00,2015-03-31 14:50:00,
2015-03-31 09:55:00,62.2,45.4,29.92,NW,308,7.5,21.0,54,0.00,,BKN250,0.00,VWS V15.00,2015-03-31 14:55:00,
2015-03-31 10:00:00,62.6,45.7,29.92,WNW,300,6.0,10.5,54,0.00,,BKN250,0.00,VWS V15.00,2015-03-31 15:00:00,
2015-03-31 10:05:00,62.8,45.9,29.92,WNW,290,9.0,18.0,54,0.00,,BKN250,0.00,VWS V15.00,2015-03-31 15:05:00,
2015-03-31 10:10:00,62.8,45.4,29.92,NW,309,7.5,18.0,53,0.00,,BKN250,0.00,VWS V15.00,2015-03-31 15:10:00,
2015-03-31 10:15:00,63.4,47.0,29.92,WNW,300,9.0,18.0,55,0.00,,BKN250,0.00,VWS V15.00,2015-03-31 15:15:00,
2015-03-31 10:20:00,63.7,45.2,29.92,NW,317,9.0,18.0,51,0.00,,BKN250,0.00,VWS V15.00,2015-03-31 15:20:00,
2015-03-31 10:25:00,63.8,44.3,29.93,NNW,327,7.5,18.0,49,0.00,,BKN250,0.00,VWS V15.00,2015-03-31 15:25:00,
2015-03-31 10:30:00,64.4,45.4,29.93,NW,326,9.0,15.0,50,0.00,,BKN250,0.00,VWS V15.00,2015-03-31 15:30:00,
2015-03-31 10:35:00,64.4,45.4,29.93,NW,309,7.5,15.0,50,0.00,,BKN250,0.00,VWS V15.00,2015-03-31 15:35:00,
2015-03-31 10:40:00,64.3,45.8,29.93,NNW,335,12.0,15.0,51,0.00,,BKN250,0.00,VWS V15.00,2015-03-31 15:40:00,
2015-03-31 10:45:00,64.7,45.1,29.93,NW,322,10.5,16.5,49,0.00,,BKN250,0.00,VWS V15.00,2015-03-31 15:45:00,
2015-03-31 10:50:00,64.7,45.1,29.93,WNW,298,10.5,16.5,49,0.00,,BKN250,0.00,VWS V15.00,2015-03-31 15:50:00,
2015-03-31 10:55:00,64.8,45.2,29.93,NNW,328,9.0,16.5,49,0.00,,BKN250,0.00,VWS V15.00,2015-03-31 15:55:00,
2015-03-31 11:00:00,64.6,45.6,29.93,NW,311,9.0,9.0,50,0.00,,BKN250,0.00,VWS V15.00,2015-03-31 16:00:00,
2015-03-31 11:05:00,65.2,45.6,29.93,NNW,341,9.0,15.0,49,0.00,,BKN250,0.00,VWS V15.00,2015-03-31 16:05:00,
2015-03-31 11:10:00,65.4,45.8,29.93,NW,315,6.0,15.0,49,0.00,,BKN250,0.00,VWS V15.00,2015-03-31 16:10:00,
2015-03-31 11:15:00,65.8,46.1,29.93,NW,318,3.0,15.0,49,0.00,,BKN250,0.00,VWS V15.00,2015-03-31 16:15:00,
2015-03-31 11:20:00,66.8,45.9,29.93,NNW,335,10.5,15.0,47,0.00,,BKN250,0.00,VWS V15.00,2015-03-31 16:20:00,
2015-03-31 11:25:00,67.0,47.2,29.93,NNW,331,6.0,15.0,49,0.00,,BKN250,0.00,VWS V15.00,2015-03-31 16:25:00,
2015-03-31 11:30:00,67.0,46.7,29.93,NNW,337,15.0,15.0,48,0.00,,BKN250,0.00,VWS V15.00,2015-03-31 16:30:00,
2015-03-31 11:35:00,67.2,45.2,29.93,North,360,12.0,16.5,45,0.00,,BKN250,0.00,VWS V15.00,2015-03-31 16:35:00,
2015-03-31 11:40:00,67.2,45.2,29.93,WNW,303,7.5,16.5,45,0.00,,BKN250,0.00,VWS V15.00,2015-03-31 16:40:00,
2015-03-31 11:45:00,67.2,44.6,29.94,NW,322,10.5,16.5,44,0.00,,BKN250,0.00,VWS V15.00,2015-03-31 16:45:00,
2015-03-31 11:50:00,67.2,45.7,29.94,NW,313,9.0,16.5,46,0.00,,BKN250,0.00,VWS V15.00,2015-03-31 16:50:00,
2015-03-31 11:55:00,67.7,46.2,29.94,NNW,335,10.5,16.5,46,0.00,,BKN250,0.00,VWS V15.00,2015-03-31 16:55:00,
2015-03-31 12:00:00,67.8,43.9,29.94,NNW,331,12.0,13.5,42,0.00,,BKN250,0.00,VWS V15.00,2015-03-31 17:00:00,
2015-03-31 12:05:00,67.9,45.8,29.94,NW,321,9.0,13.5,45,0.00,,BKN250,0.00,VWS V15.00,2015-03-31 17:05:00,
2015-03-31 12:10:00,68.3,44.3,29.93,NNW,338,9.0,13.5,42,0.00,,BKN250,0.00,VWS V15.00,2015-03-31 17:10:00,
2015-03-31 12:15:00,68.0,42.8,29.93,NNW,337,12.0,13.5,40,0.00,,BKN250,0.00,VWS V15.00,2015-03-31 17:15:00,
2015-03-31 12:20:00,68.4,45.7,29.93,North,355,10.5,13.5,44,0.00,,BKN250,0.00,VWS V15.00,2015-03-31 17:20:00,
2015-03-31 12:25:00,68.6,44.6,29.93,NW,304,7.5,13.5,42,0.00,,BKN250,0.00,VWS V15.00,2015-03-31 17:25:00,
2015-03-31 12:30:00,68.6,43.3,29.93,North,355,7.5,15.0,40,0.00,,BKN250,0.00,VWS V15.00,2015-03-31 17:30:00,
2015-03-31 12:35:00,68.9,44.2,29.93,WNW,287,10.5,15.0,41,0.00,,BKN250,0.00,VWS V15.00,2015-03-31 17:35:00,
2015-03-31 12:40:00,68.9,43.0,29.93,NW,319,3.0,16.5,39,0.00,,BKN250,0.00,VWS V15.00,2015-03-31 17:40:00,
2015-03-31 12:45:00,69.3,45.9,29.93,NNW,328,10.5,16.5,43,0.00,,BKN250,0.00,VWS V15.00,2015-03-31 17:45:00,
2015-03-31 12:50:00,69.7,44.3,29.93,NNW,338,7.5,16.5,40,0.00,,BKN250,0.00,VWS V15.00,2015-03-31 17:50:00,
2015-03-31 12:55:00,69.9,44.5,29.93,North,360,15.0,16.5,40,0.00,,BKN250,0.00,VWS V15.00,2015-03-31 17:55:00,
2015-03-31 13:00:00,69.7,42.3,29.93,NNW,332,10.5,15.0,37,0.00,,BKN250,0.00,VWS V15.00,2015-03-31 18:00:00,
2015-03-31 13:05:00,69.3,41.9,29.92,NW,324,9.0,15.0,37,0.00,,BKN250,0.00,VWS V15.00,2015-03-31 18:05:00,
2015-03-31 13:10:00,68.9,42.3,29.92,NW,322,6.0,15.0,38,0.00,,BKN250,0.00,VWS V15.00,2015-03-31 18:10:00,
2015-03-31 13:15:00,69.2,43.9,29.92,NW,325,9.0,15.0,40,0.00,,BKN250,0.00,VWS V15.00,2015-03-31 18:15:00,
2015-03-31 13:20:00,70.1,43.3,29.92,WNW,300,7.5,15.0,38,0.00,,BKN250,0.00,VWS V15.00,2015-03-31 18:20:00,
2015-03-31 13:25:00,69.7,41.6,29.92,NNW,338,6.0,15.0,36,0.00,,BKN250,0.00,VWS V15.00,2015-03-31 18:25:00,
2015-03-31 13:30:00,69.7,44.3,29.92,NW,324,6.0,7.5,40,0.00,,BKN250,0.00,VWS V15.00,2015-03-31 18:30:00,
2015-03-31 13:35:00,69.9,45.2,29.92,WNW,300,12.0,19.5,41,0.00,,BKN250,0.00,VWS V15.00,2015-03-31 18:35:00,
2015-03-31 13:40:00,70.2,43.4,29.92,NNW,328,6.0,19.5,38,0.00,,BKN250,0.00,VWS V15.00,2015-03-31 18:40:00,
2015-03-31 13:45:00,70.8,46.0,29.92,NW,323,3.0,19.5,41,0.00,,BKN250,0.00,VWS V15.00,2015-03-31 18:45:00,
2015-03-31 13:50:00,70.8,41.8,29.92,NNW,333,7.5,19.5,35,0.00,,BKN250,0.00,VWS V15.00,2015-03-31 18:50:00,
2015-03-31 13:55:00,70.7,44.5,29.92,North,355,9.0,19.5,39,0.00,,BKN250,0.00,VWS V15.00,2015-03-31 18:55:00,
2015-03-31 14:00:00,71.0,42.7,29.92,North,360,6.0,10.5,36,0.00,,BKN250,0.00,VWS V15.00,2015-03-31 19:00:00,
2015-03-31 14:05:00,70.9,41.9,29.92,North,5,0.0,13.5,35,0.00,,BKN250,0.00,VWS V15.00,2015-03-31 19:05:00,
2015-03-31 14:10:00,71.4,43.8,29.92,NW,304,1.5,13.5,37,0.00,,BKN250,0.00,VWS V15.00,2015-03-31 19:10:00,
2015-03-31 14:15:00,71.3,43.0,29.92,WNW,296,9.0,13.5,36,0.00,,BKN250,0.00,VWS V15.00,2015-03-31 19:15:00,
2015-03-31 14:20:00,71.1,42.1,29.91,North,5,6.0,13.5,35,0.00,,BKN250,0.00,VWS V15.00,2015-03-31 19:20:00,
2015-03-31 14:25:00,72.0,43.6,29.91,NNW,348,13.5,18.0,36,0.00,,BKN250,0.00,VWS V15.00,2015-03-31 19:25:00,
2015-03-31 14:30:00,71.6,44.7,29.91,WNW,300,10.5,13.5,38,0.00,,BKN250,0.00,VWS V15.00,2015-03-31 19:30:00,
2015-03-31 14:35:00,71.2,44.3,29.91,NW,323,9.0,13.5,38,0.00,,BKN250,0.00,VWS V15.00,2015-03-31 19:35:00,
2015-03-31 14:40:00,72.1,46.5,29.91,NW,319,0.0,13.5,40,0.00,,BKN250,0.00,VWS V15.00,2015-03-31 19:40:00,
2015-03-31 14:45:00,73.2,42.4,29.90,ENE,69,15.0,21.0,33,0.00,,BKN250,0.00,VWS V15.00,2015-03-31 19:45:00,
2015-03-31 14:50:00,73.3,41.7,29.90,NNE,17,16.5,21.0,32,0.00,,BKN250,0.00,VWS V15.00,2015-03-31 19:50:00,
2015-03-31 14:55:00,73.1,46.0,29.90,North,360,4.5,21.0,38,0.00,,BKN250,0.00,VWS V15.00,2015-03-31 19:55:00,
2015-03-31 15:00:00,72.5,44.1,29.90,WNW,300,9.0,10.5,36,0.00,,BKN250,0.00,VWS V15.00,2015-03-31 20:00:00,
2015-03-31 15:05:00,72.2,45.2,29.90,NNW,342,12.0,16.5,38,0.00,,BKN250,0.00,VWS V15.00,2015-03-31 20:05:00,
2015-03-31 15:09:00,72.2,44.5,29.90,NNW,336,3.0,16.5,37,0.00,,BKN250,0.00,VWS V15.00,2015-03-31 20:09:00,
2015-03-31 15:14:00,72.3,43.1,29.90,North,355,6.0,16.5,35,0.00,,BKN250,0.00,VWS V15.00,2015-03-31 20:14:00,
2015-03-31 15:19:00,72.5,45.5,29.89,NW,315,9.0,16.5,38,0.00,,BKN250,0.00,VWS V15.00,2015-03-31 20:19:00,
2015-03-31 15:24:00,72.3,43.1,29.89,North,355,3.0,16.5,35,0.00,,BKN250,0.00,VWS V15.00,2015-03-31 20:24:00,
2015-03-31 15:29:00,72.4,43.2,29.89,NW,316,9.0,12.0,35,0.00,,BKN250,0.00,VWS V15.00,2015-03-31 20:29:00,
2015-03-31 15:34:00,72.2,44.5,29.89,WNW,300,1.5,12.0,37,0.00,,BKN250,0.00,VWS V15.00,2015-03-31 20:34:00,
2015-03-31 15:39:00,72.5,43.3,29.89,NNW,328,10.5,13.5,35,0.00,,BKN250,0.00,VWS V15.00,2015-03-31 20:39:00,
2015-03-31 15:44:00,72.4,43.2,29.89,WNW,297,6.0,13.5,35,0.00,,BKN250,0.00,VWS V15.00,2015-03-31 20:44:00,
2015-03-31 15:49:00,72.5,42.6,29.89,NW,323,9.0,13.5,34,0.00,,BKN250,0.00,VWS V15.00,2015-03-31 20:49:00,
2015-03-31 15:54:00,72.2,44.5,29.89,NNW,331,10.5,16.5,37,0.00,,BKN250,0.00,VWS V15.00,2015-03-31 20:54:00,
2015-03-31 15:59:00,72.2,43.1,29.89,NW,325,9.0,12.0,35,0.00,,BKN250,0.00,VWS V15.00,2015-03-31 20:59:00,
2015-03-31 16:04:00,71.9,41.3,29.89,NNW,329,7.5,12.0,33,0.00,,BKN250,0.00,VWS V15.00,2015-03-31 21:04:00,
2015-03-31 16:09:00,72.2,41.5,29.89,NW,321,10.5,18.0,33,0.00,,BKN250,0.00,VWS V15.00,2015-03-31 21:09:00,
2015-03-31 16:14:00,72.1,43.7,29.89,NNW,337,12.0,18.0,36,0.00,,BKN250,0.00,VWS V15.00,2015-03-31 21:14:00,
2015-03-31 16:19:00,72.0,42.9,29.89,North,355,10.5,18.0,35,0.00,,BKN250,0.00,VWS V15.00,2015-03-31 21:19:00,
2015-03-31 16:24:00,71.9,41.3,29.89,NNW,337,16.5,19.5,33,0.00,,BKN250,0.00,VWS V15.00,2015-03-31 21:24:00,
2015-03-31 16:29:00,71.7,42.6,29.89,NNW,331,13.5,15.0,35,0.00,,BKN250,0.00,VWS V15.00,2015-03-31 21:29:00,
2015-03-31 16:34:00,71.5,41.7,29.89,North,360,9.0,15.0,34,0.00,,BKN250,0.00,VWS V15.00,2015-03-31 21:34:00,
2015-03-31 16:39:00,71.6,41.0,29.89,NNW,333,10.5,19.5,33,0.00,,BKN250,0.00,VWS V15.00,2015-03-31 21:39:00,
2015-03-31 16:44:00,71.4,40.8,29.89,North,355,9.0,19.5,33,0.00,,BKN250,0.00,VWS V15.00,2015-03-31 21:44:00,
2015-03-31 16:49:00,71.4,40.8,29.89,North,349,15.0,19.5,33,0.00,,BKN250,0.00,VWS V15.00,2015-03-31 21:49:00,
2015-03-31 16:54:00,71.2,41.4,29.89,NNW,338,13.5,19.5,34,0.00,,BKN250,0.00,VWS V15.00,2015-03-31 21:54:00,
2015-03-31 16:59:00,71.1,41.3,29.89,NW,317,7.5,9.0,34,0.00,,BKN250,0.00,VWS V15.00,2015-03-31 21:59:00,
2015-03-31 17:04:00,71.1,40.6,29.89,NNW,333,9.0,15.0,33,0.00,,BKN250,0.00,VWS V15.00,2015-03-31 22:04:00,
2015-03-31 17:09:00,71.1,40.6,29.89,NNW,327,10.5,15.0,33,0.00,,BKN250,0.00,VWS V15.00,2015-03-31 22:09:00,
2015-03-31 17:14:00,70.8,41.8,29.89,NNW,344,10.5,15.0,35,0.00,,BKN250,0.00,VWS V15.00,2015-03-31 22:14:00,
2015-03-31 17:19:00,71.0,42.7,29.88,North,355,9.0,15.0,36,0.00,,BKN250,0.00,VWS V15.00,2015-03-31 22:19:00,
2015-03-31 17:24:00,71.0,41.2,29.88,North,9,13.5,18.0,34,0.00,,BKN250,0.00,VWS V15.00,2015-03-31 22:24:00,
2015-03-31 17:29:00,70.7,41.0,29.88,North,5,15.0,18.0,34,0.00,,BKN250,0.00,VWS V15.00,2015-03-31 22:29:00,
2015-03-31 17:34:00,70.6,41.7,29.88,North,355,10.5,18.0,35,0.00,,BKN250,0.00,VWS V15.00,2015-03-31 22:34:00,
2015-03-31 17:39:00,70.4,40.7,29.88,North,355,12.0,18.0,34,0.00,,BKN250,0.00,VWS V15.00,2015-03-31 22:39:00,
2015-03-31 17:44:00,70.3,41.4,29.89,North,355,12.0,18.0,35,0.00,,BKN250,0.00,VWS V15.00,2015-03-31 22:44:00,
2015-03-31 17:49:00,70.4,40.0,29.89,North,5,13.5,18.0,33,0.00,,BKN250,0.00,VWS V15.00,2015-03-31 22:49:00,